Regional Weather Roundup
Issued by NWS

Home | Current Version | Previous Version | Graphics & Text | Print | Product List | Glossary Off
Versions: 1 2 3 4 5 6 7 8 9 10 11 12 13 14 15 16 17 18 19 20 21 22 23 24 25 26 27 28 29 30 31 32 33 34 35 36 37 38 39 40 41 42 43 44 45 46 47 48 49 50

000
ASUS43 KDTX 230110
RWRMI
MICHIGAN HOURLY REGIONAL WEATHER ROUNDUP
NATIONAL WEATHER SERVICE DETROIT/PONTIAC MI
900 PM EDT FRI JUL 22 2016

NOTE: "FAIR" INDICATES FEW OR NO CLOUDS BELOW 12,000 FEET WITH NO
SIGNIFICANT WEATHER AND/OR OBSTRUCTION TO VISIBILITY.

MIZ047>049-052>055-059>063-066>070-074>076-081>083-230200-
SOUTHEAST LOWER MICHIGAN

CITY           SKY/WX    TMP DP  RH WIND       PRES   REMARKS
ADRIAN         CLEAR     83  71  67 NW5       29.96S
ALMA           CLEAR     84  71  65 W6        29.95R
ANN ARBOR      CLEAR     84  71  65 W7        29.95R
BAD AXE        CLEAR     83  62  49 NW6       29.92R
CARO           CLEAR     84  70  61 W7        29.92R
DETROIT CITY   CLEAR     89  69  51 NW7       29.92R HX  93
DETROIT        PTCLDY    88  69  53 W12       29.93S HX  92
FLINT          CLEAR     88  66  48 W9        29.94R HX  90
GROSSE ILE     CLEAR     85  70  59 CALM      29.92S HX  90
HOWELL         CLEAR     83  68  59 NW3       29.96S

CITY           SKY/WX    TMP DP  RH WIND       PRES   REMARKS
JACKSON        LGT RAIN  82  71  69 W6        29.97S
LAMBERTVILLE   CLEAR     85  72  65 CALM      29.95S HX  90
LANSING        CLEAR     82  69  64 W7        29.97R
LAPEER         FAIR      85  66  51 W5        29.94R
MASON          CLEAR     83  69  60 W3        29.96S
MONROE         CLEAR     82  75  78 W5        29.93S
MT. CLEMENS    PTCLDY    88  69  53 W8        29.90R HX  91
PONTIAC        CLEAR     86  68  54 W9        29.94R
PORT HURON     CLEAR     82  70  65 CALM      29.91R
TRI CITIES     CLEAR     84  73  69 W10       29.93R HX  90
MIDLAND        FAIR      83  65  54 CALM      29.92R
TROY           CLEAR     90  66  45 W7        29.95R HX  92
SAGINAW HB     CLEAR     86  68  54 W8        29.92R
$$
MIZ043>046-050>051-056>058-064>065-071>073-077>080-230200-
SOUTHWEST LOWER MICHIGAN

CITY           SKY/WX    TMP DP  RH WIND       PRES   REMARKS
BATTLE CREEK   CLEAR     78  71  79 W8        29.99R
BENTON HARBOR  CLEAR     79  68  69 CALM      29.98S
BIG RAPIDS     CLEAR     80  64  58 W3        29.97R
COLDWATER      CLEAR     82  70  68 W3        29.98S
FREMONT        FAIR      79  67  66 SW3       29.97S
HOLLAND        CLEAR     75  69  81 W3        29.99R
GRAND RAPIDS   PTCLDY    81  68  64 W8        29.98R
IONIA          FAIR      82  67  60 W7        29.96R
KALAMAZOO      CLEAR     81  69  67 W5        29.98S
LUDINGTON      CLEAR     74  69  83 CALM      29.96R
MARSHALL       CLEAR     81  71  71 W5        29.97S
MOUNT PLEASANT CLEAR     85  63  47 W3        29.94R
MUSKEGON       CLEAR     75  69  81 S3        29.98R
SOUTH HAVEN    CLEAR     77  68  73 CALM      29.98S
$$
MIZ016>042-230200-
NORTHERN LOWER MICHIGAN

CITY           SKY/WX    TMP DP  RH WIND       PRES   REMARKS
ALPENA         CLEAR     83  57  41 W3        29.91R
BEAVER ISLAND  CLEAR     72  65  80 SW7       29.94S
BELLAIRE       CLEAR     74  67  79 CALM      29.93S
CADILLAC       CLEAR     78  61  55 W6        29.98S
CHARLEVOIX     CLEAR     79  62  56 SW6       29.96S
FRANKFORT      CLEAR     76  68  76 W3        29.95S
GAYLORD        CLEAR     80  60  50 W5        29.97R
GRAYLING       CLEAR     79  59  50 CALM      29.97S
HARBOR SPRINGS CLEAR     77  62  58 W7        29.94R
HOUGHTON LAKE  CLEAR     79  58  48 CALM      29.97R
MANISTEE       CLEAR     77  70  79 W6        29.95S
OSCODA         CLEAR     77  64  63 CALM      29.91R
PELLSTON       CLEAR     76  63  64 W8        29.94R
ROGERS CITY    CLEAR     81  59  47 W7        29.92R
TRAVERSE CITY  CLEAR     83  61  47 SW5       29.92S
$$
MIZ007>008-015-230200-
EASTERN UPPER MICHIGAN

CITY           SKY/WX    TMP DP  RH WIND       PRES   REMARKS
KINROSS        CLEAR     77  60  55 NW7       29.92R
MACKINAC ISLAN CLEAR     71  65  81 W7        29.92S
NEWBERRY       CLEAR     75  62  63 W6        29.92S
S. S. MARIE    CLEAR     73  60  63 NW12G20   29.91R
MUNISING         N/A     76  64  66 NW3       29.91S
$$
MIZ004>006-011>014-085-230200-
CENTRAL UPPER MICHIGAN

CITY           SKY/WX    TMP DP  RH WIND       PRES   REMARKS
MANISTIQUE     CLEAR     73  68  84 CALM      29.92S
ESCANABA       CLEAR     84  52  32 NW6       29.92R
MENOMINEE      CLEAR     84  72  67 SW5       29.93R
SAWYER-GWINN   CLEAR     82  54  36 NW10      29.96R
$$
MIZ001>003-009>011-084-230200-
WESTERN UPPER MICHIGAN

CITY           SKY/WX    TMP DP  RH WIND       PRES   REMARKS
IRON MOUNTAIN  CLEAR     83  59  44 N6        29.96R
HOUGHTON       CLEAR     77  56  48 W9        29.92S
COPPER HARBOR    N/A     79  55  43 VRB5      29.89S
IRONWOOD       CLEAR     81  72  74 CALM      29.95S
$$

ABBREVIATIONS USED IN REMARKS
   TC - TEMPERATURE IN CELSIUS
  WCI - WIND CHILL INDEX
   HX - HEAT INDEX
  VSB - VISIBILITY





USA.gov is the U.S. government's official web portal to all federal, state and local government web resources and services.